| time (UTC) | temp C | wind direction | speed KPH | gust KPH | rain 1hr cm | rain 24hr cm | rain mn cm | humidity % | barometer mb |
| 20260901063037 | 25 | 218 | 8.0 | 14.5 | 0.00 | 0.00 | 0.00 | 57 | 1000.7 |
| 20260901061535 | 25 | 229 | 12.9 | 16.1 | 0.00 | 0.00 | 0.00 | 56 | 1000.6 |
| 20260901060034 | 26 | 194 | 14.5 | 22.5 | 0.00 | 0.00 | 0.00 | 55 | 1000.4 |
| 20260901054532 | 26 | 201 | 14.5 | 22.5 | 0.00 | 0.00 | 0.00 | 54 | 1000.3 |
| 20260901053036 | 26 | 186 | 29.0 | 37.0 | 0.00 | 0.00 | 0.00 | 50 | 1000.3 |
| 20260901051533 | 26 | 171 | 32.2 | 38.6 | 0.00 | 0.00 | 0.00 | 50 | 1000.0 |
| 20260901050031 | 27 | 165 | 33.8 | 41.8 | 0.00 | 0.00 | 0.00 | 49 | 999.8 |
| 20260901044531 | 26 | 173 | 32.2 | 40.2 | 0.00 | 0.00 | 0.00 | 51 | 999.7 |
| 20260901043031 | 26 | 171 | 32.2 | 40.2 | 0.00 | 0.00 | 0.00 | 51 | 999.7 |
| 20260901041601 | 26 | 173 | 32.2 | 41.8 | 0.00 | 0.00 | 0.00 | 51 | 999.6 |
| 20260901034558 | 26 | 187 | 29.0 | 45.1 | 0.00 | 0.00 | 0.00 | 53 | 999.5 |
| 20260901033057 | 28 | 196 | 51.5 | 61.2 | 0.00 | 0.00 | 0.00 | 46 | 999.3 |
| 20260901031534 | 28 | 177 | 43.5 | 49.9 | 0.00 | 0.00 | 0.00 | 43 | 999.2 |
| 20260901030030 | 28 | 163 | 46.7 | 59.5 | 0.00 | 0.00 | 0.00 | 42 | 998.7 |
| 20260901024531 | 29 | 169 | 51.5 | 64.4 | 0.00 | 0.00 | 0.00 | 42 | 998.4 |
| 20260901023033 | 28 | 167 | 45.1 | 53.1 | 0.00 | 0.00 | 0.00 | 44 | 997.9 |
| 20260901021538 | 27 | 189 | 48.3 | 69.2 | 0.00 | 0.00 | 0.00 | 51 | 997.9 |
| 20260901020037 | 30 | 183 | 51.5 | 62.8 | 0.00 | 0.00 | 0.00 | 41 | 997.7 |
| 20260901014537 | 33 | 138 | 46.7 | 64.4 | 0.00 | 0.00 | 0.00 | 36 | 997.0 |
| 20260901013036 | 33 | 145 | 43.5 | 57.9 | 0.00 | 0.00 | 0.00 | 34 | 996.7 |
| 20260901011531 | 33 | 132 | 48.3 | 56.3 | 0.00 | 0.00 | 0.00 | 34 | 996.6 |
| 20260901010039 | 34 | 124 | 35.4 | 48.3 | 0.00 | 0.00 | 0.00 | 33 | 996.9 |
| 20260901004530 | 34 | 129 | 35.4 | 48.3 | 0.00 | 0.00 | 0.00 | 32 | 996.8 |
| 20260901003029 | 35 | 138 | 32.2 | 41.8 | 0.00 | 0.00 | 0.00 | 31 | 996.4 |
| 20260901001533 | 35 | 139 | 38.6 | 51.5 | 0.00 | 0.00 | 0.00 | 31 | 996.3 |
| 20260901000029 | 35 | 139 | 27.4 | 41.8 | 0.00 | 0.00 | 0.00 | 30 | 996.5 |
| 20260831234539 | 36 | 147 | 25.7 | 41.8 | 0.00 | 0.00 | 0.00 | 26 | 996.5 |
| 20260831233021 | 35 | 137 | 16.1 | 32.2 | 0.00 | 0.00 | 0.00 | 27 | 996.5 |
| 20260831231529 | 35 | 124 | 24.1 | 37.0 | 0.00 | 0.00 | 0.00 | 26 | 996.6 |
| 20260831230029 | 35 | 90 | 17.7 | 32.2 | 0.00 | 0.00 | 0.00 | 27 | 996.6 |
| 20260831224528 | 36 | 140 | 24.1 | 40.2 | 0.00 | 0.00 | 0.00 | 26 | 996.5 |
| 20260831223024 | 35 | 49 | 24.1 | 35.4 | 0.00 | 0.00 | 0.00 | 27 | 996.6 |
| 20260831221536 | 35 | 138 | 29.0 | 38.6 | 0.00 | 0.00 | 0.00 | 26 | 996.8 |
| 20260831220027 | 36 | 92 | 19.3 | 37.0 | 0.00 | 0.00 | 0.00 | 26 | 997.0 |
| 20260831214540 | 36 | 85 | 16.1 | 27.4 | 0.00 | 0.00 | 0.00 | 25 | 997.3 |
| 20260831213030 | 36 | 88 | 20.9 | 29.0 | 0.00 | 0.00 | 0.00 | 26 | 997.5 |
| 20260831211515 | 36 | 178 | 1.6 | 9.7 | 0.00 | 0.00 | 0.00 | 25 | 997.9 |
| 20260831210008 | 35 | 111 | 9.7 | 29.0 | 0.00 | 0.00 | 0.00 | 27 | 998.3 |
| 20260831204506 | 35 | 165 | 4.8 | 22.5 | 0.00 | 0.00 | 0.00 | 28 | 998.4 |
| 20260831203006 | 35 | 90 | 12.9 | 24.1 | 0.00 | 0.00 | 0.00 | 28 | 998.6 |
| 20260831201518 | 35 | 350 | 11.3 | 19.3 | 0.00 | 0.00 | 0.00 | 27 | 999.0 |
| 20260831200019 | 35 | 65 | 6.4 | 16.1 | 0.00 | 0.00 | 0.00 | 28 | 999.2 |
| 20260831194518 | 34 | 182 | 9.7 | 20.9 | 0.00 | 0.00 | 0.00 | 29 | 999.3 |
| 20260831193013 | 35 | 167 | 11.3 | 25.7 | 0.00 | 0.00 | 0.00 | 29 | 999.5 |
| 20260831191508 | 34 | 259 | 8.0 | 17.7 | 0.00 | 0.00 | 0.00 | 30 | 999.7 |
| 20260831190008 | 33 | 289 | 4.8 | 17.7 | 0.00 | 0.00 | 0.00 | 31 | 999.8 |
| 20260831184506 | 33 | 244 | 16.1 | 19.3 | 0.00 | 0.00 | 0.00 | 31 | 1000.0 |
| 20260831183004 | 34 | 275 | 6.4 | 12.9 | 0.00 | 0.00 | 0.00 | 30 | 1000.2 |
| 20260831181601 | 33 | 86 | 9.7 | 16.1 | 0.00 | 0.00 | 0.00 | 32 | 1000.4 |
| 20260831180054 | 33 | 15 | 6.4 | 12.9 | 0.00 | 0.00 | 0.00 | 33 | 1000.6 |
| 20260831174553 | 32 | 221 | 8.0 | 19.3 | 0.00 | 0.00 | 0.00 | 34 | 1000.6 |
| 20260831173049 | 32 | 162 | 6.4 | 20.9 | 0.00 | 0.00 | 0.00 | 35 | 1000.7 |
| 20260831171558 | 31 | 51 | 3.2 | 25.7 | 0.00 | 0.00 | 0.00 | 37 | 1000.9 |
| 20260831170054 | 32 | 121 | 9.7 | 16.1 | 0.00 | 0.00 | 0.00 | 37 | 1001.0 |
| 20260831164552 | 31 | 137 | 3.2 | 16.1 | 0.00 | 0.00 | 0.00 | 39 | 1001.2 |
| 20260831163048 | 30 | 51 | 4.8 | 14.5 | 0.00 | 0.00 | 0.00 | 41 | 1001.2 |
| 20260831161537 | 30 | 144 | 8.0 | 16.1 | 0.00 | 0.00 | 0.00 | 44 | 1001.2 |
| 20260831160042 | 29 | 142 | 6.4 | 16.1 | 0.00 | 0.00 | 0.00 | 45 | 1001.1 |
| 20260831154529 | 28 | 107 | 8.0 | 16.1 | 0.00 | 0.00 | 0.00 | 47 | 1001.0 |
| 20260831153048 | 28 | 146 | 8.0 | 16.1 | 0.00 | 0.00 | 0.00 | 49 | 1000.9 |
| 20260831151534 | 27 | 142 | 11.3 | 17.7 | 0.00 | 0.00 | 0.00 | 51 | 1000.8 |
| 20260831150033 | 27 | 196 | 8.0 | 17.7 | 0.00 | 0.00 | 0.00 | 52 | 1000.8 |
| 20260831144523 | 26 | 165 | 12.9 | 19.3 | 0.00 | 0.00 | 0.00 | 54 | 1000.8 |
| 20260831143035 | 25 | 138 | 17.7 | 25.7 | 0.00 | 0.00 | 0.00 | 56 | 1000.8 |
| 20260831141525 | 25 | 138 | 19.3 | 27.4 | 0.00 | 0.00 | 0.00 | 56 | 1000.8 |
| 20260831140043 | 25 | 140 | 19.3 | 27.4 | 0.00 | 0.00 | 0.00 | 58 | 1000.6 |
| 20260831134518 | 25 | 134 | 20.9 | 32.2 | 0.00 | 0.00 | 0.00 | 59 | 1000.4 |
| 20260831133029 | 24 | 141 | 14.5 | 19.3 | 0.00 | 0.00 | 0.00 | 59 | 1000.3 |
| 20260831131516 | 24 | 134 | 14.5 | 22.5 | 0.00 | 0.00 | 0.00 | 59 | 1000.2 |
| 20260831130019 | 24 | 138 | 11.3 | 14.5 | 0.00 | 0.00 | 0.00 | 59 | 1000.2 |
| 20260831124529 | 24 | 178 | 6.4 | 11.3 | 0.00 | 0.00 | 0.00 | 59 | 1000.2 |
| 20260831123010 | 24 | 155 | 6.4 | 16.1 | 0.00 | 0.00 | 0.00 | 59 | 999.9 |
| 20260831121520 | 24 | 142 | 12.9 | 25.7 | 0.00 | 0.00 | 0.00 | 58 | 999.7 |
| 20260831120017 | 24 | 148 | 22.5 | 30.6 | 0.00 | 0.00 | 0.00 | 57 | 999.4 |
| 20260831114504 | 25 | 147 | 22.5 | 35.4 | 0.00 | 0.00 | 0.00 | 57 | 999.4 |
| 20260831113004 | 25 | 142 | 25.7 | 35.4 | 0.00 | 0.00 | 0.00 | 56 | 999.2 |
| 20260831111501 | 25 | 137 | 25.7 | 32.2 | 0.00 | 0.00 | 0.00 | 55 | 999.1 |
| 20260831110100 | 25 | 146 | 25.7 | 35.4 | 0.00 | 0.00 | 0.00 | 55 | 999.1 |
| 20260831104557 | 25 | 140 | 27.4 | 37.0 | 0.00 | 0.00 | 0.00 | 54 | 999.1 |
| 20260831103056 | 25 | 141 | 29.0 | 38.6 | 0.00 | 0.00 | 0.00 | 53 | 999.1 |
| 20260831101604 | 25 | 142 | 29.0 | 38.6 | 0.00 | 0.00 | 0.00 | 53 | 999.0 |
| 20260831100053 | 26 | 142 | 30.6 | 37.0 | 0.00 | 0.00 | 0.00 | 52 | 998.9 |
| 20260831094604 | 26 | 144 | 27.4 | 32.2 | 0.00 | 0.00 | 0.00 | 52 | 998.8 |
| 20260831093050 | 26 | 139 | 25.7 | 35.4 | 0.00 | 0.00 | 0.00 | 52 | 998.9 |
| 20260831091547 | 26 | 137 | 25.7 | 33.8 | 0.00 | 0.00 | 0.00 | 51 | 999.0 |
| 20260831090045 | 26 | 146 | 25.7 | 35.4 | 0.00 | 0.00 | 0.00 | 51 | 999.0 |
| 20260831080038 | 27 | 141 | 30.6 | 37.0 | 0.00 | 0.00 | 0.00 | 50 | 998.9 |
| 20260831074540 | 27 | 141 | 27.4 | 35.4 | 0.00 | 0.00 | 0.00 | 49 | 999.1 |
| 20260831073040 | 27 | 136 | 29.0 | 38.6 | 0.00 | 0.00 | 0.00 | 49 | 999.0 |
| 20260831071539 | 27 | 138 | 32.2 | 41.8 | 0.00 | 0.00 | 0.00 | 49 | 999.2 |
| 20260831070105 | 28 | 142 | 32.2 | 40.2 | 0.00 | 0.00 | 0.00 | 48 | 999.2 |
| 20260831064537 | 28 | 149 | 32.2 | 46.7 | 0.00 | 0.00 | 0.00 | 47 | 999.3 |